Weather History for Fargo, ND

Change the Weather History Date:

Thursday, March 14, 2013

  Actual Average Record
Temperature  
Mean Temperature 25 °F 27 °F  
Max Temperature 35 °F 35 °F 66 °F (1981)
Min Temperature 14 °F 19 °F -28 °F (1897)
Degree Days  
Heating Degree Days 40 38  
Month to date heating degree days 640 581  
Since 1 July heating degree days 7231 7259  
Cooling Degree Days 0 0  
Month to date cooling degree days 0 0  
Year to date cooling degree days 0 0  
Moisture  
Dew Point 21 °F    
Average Humidity 79    
Maximum Humidity 85    
Minimum Humidity 72    
Precipitation  
Precipitation 0.00 in 0.05 in 0.82 in (1973)
Month to date precipitation 0.67 0.56  
Year to date precipitation 2.86 1.87  
Snow  
Snow 0.00 in 0.30 in 5.00 in (1899)
Month to date snowfall 6.8 5.0  
Since 1 July snowfall 43.9 43.0  
Snow Depth 14.00 in    
Sea Level Pressure  
Sea Level Pressure 30.11 in    
Wind  
Wind Speed 9 mph (SSW)    
Max Wind Speed 17 mph    
Max Gust Speed 23 mph    
Visibility 9 miles    
Events      
T = Trace of Precipitation, MM = Missing Value Source: NWS Daily Summary

Daily Weather History Graph

Daily Weather History Graph

Search for Another Location

Airport:

Trip Planner

Search our weather history database for the weather conditions in past years. The results will help you decide how hot, cold, wet, or windy it might be!

Date:

Astronomy

Mar. 14, 2013 Rise Set
Actual Time 7:41 AM CDT 7:31 PM CDT
Civil Twilight 7:11 AM CDT 8:02 PM CDT
Nautical Twilight 6:35 AM CDT 8:37 PM CDT
Astronomical Twilight 5:59 AM CDT 9:13 PM CDT
Moon 8:42 AM CDT (3/14) 11:05 PM CDT (3/14)
Length of Visible Light 12h 50m
Length of Day
11h 50m
Waxing Crescent, 9% of the Moon is Illuminated
Mar 14
Waxing Crescent
Mar 19
First Quarter
Mar 27
Full
Apr 2
Last Quarter
Apr 10
New

Hourly Weather History & Observations

Time (CDT) Temp. Windchill Dew Point Humidity Pressure Visibility Wind Dir Wind Speed Gust Speed Precip Events Conditions
12:53 AM 27.0 °F 16.1 °F 19.9 °F 75% 30.12 in 10.0 mi SE 12.7 mph - 0.00 in   Overcast
1:53 AM 28.0 °F 17.5 °F 21.9 °F 78% 30.09 in 10.0 mi SE 12.7 mph - N/A   Overcast
2:53 AM 28.0 °F 18.1 °F 21.0 °F 75% 30.08 in 10.0 mi SSE 11.5 mph - N/A   Scattered Clouds
3:53 AM 27.0 °F 15.6 °F 21.0 °F 78% 30.06 in 10.0 mi SSE 13.8 mph - N/A   Clear
4:53 AM 27.0 °F 16.7 °F 21.0 °F 78% 30.06 in 10.0 mi SSE 11.5 mph - N/A   Clear
5:53 AM 25.0 °F 17.1 °F 19.9 °F 81% 30.08 in 10.0 mi SE 6.9 mph - N/A   Clear
6:53 AM 21.0 °F 16.2 °F 17.1 °F 85% 30.10 in 9.0 mi ESE 3.5 mph - N/A   Clear
7:53 AM 19.9 °F - 16.0 °F 85% 30.12 in 1.5 mi Calm Calm - N/A   Clear
8:01 AM 15.8 °F - 14.0 °F 93% 30.06 in 10.0 mi Calm Calm - N/A   Clear
8:53 AM 21.9 °F 13.4 °F 18.0 °F 85% 30.12 in 10.0 mi South 6.9 mph - N/A   Clear
9:53 AM 25.0 °F 17.1 °F 19.9 °F 81% 30.14 in 8.0 mi South 6.9 mph - N/A   Clear
10:53 AM 28.0 °F 20.0 °F 21.9 °F 78% 30.12 in 10.0 mi South 8.1 mph - N/A   Clear
11:53 AM 28.9 °F 21.1 °F 21.9 °F 75% 30.13 in - South 8.1 mph - N/A   Clear
12:53 PM 28.9 °F 20.4 °F 23.0 °F 78% 30.14 in - WSW 9.2 mph - N/A   Clear
1:02 PM 28.4 °F 21.2 °F 23.0 °F 80% 30.08 in 8.0 mi SSW 6.9 mph - N/A   Clear
1:53 PM 30.0 °F 26.5 °F 24.1 °F 79% 30.12 in 8.0 mi SSW 3.5 mph - N/A   Clear
2:53 PM 32.0 °F 26.4 °F 25.0 °F 75% 30.12 in 8.0 mi SW 5.8 mph - N/A   Clear
3:53 PM 33.1 °F 30.0 °F 26.1 °F 75% 30.10 in 10.0 mi West 3.5 mph - N/A   Clear
4:53 PM 34.0 °F 29.8 °F 26.1 °F 73% 30.09 in 10.0 mi West 4.6 mph - N/A   Clear
5:53 PM 34.0 °F 28.8 °F 26.1 °F 73% 30.08 in 8.0 mi West 5.8 mph - N/A   Clear
6:53 PM 32.0 °F 25.6 °F 25.0 °F 75% 30.10 in 7.0 mi WNW 6.9 mph - N/A   Clear
7:53 PM 28.9 °F 20.4 °F 24.1 °F 82% 30.12 in 6.0 mi NNW 9.2 mph - N/A   Haze
8:53 PM 26.1 °F 15.6 °F 19.9 °F 78% 30.12 in 8.0 mi North 11.5 mph - N/A   Clear
9:53 PM 24.1 °F 12.0 °F 19.0 °F 81% 30.13 in 9.0 mi NNW 13.8 mph - N/A   Mostly Cloudy
10:53 PM 23.0 °F 10.6 °F 17.1 °F 78% 30.13 in 10.0 mi North 13.8 mph - N/A   Overcast
11:53 PM 24.1 °F 12.0 °F 17.1 °F 75% 30.11 in 10.0 mi North 13.8 mph - N/A   Overcast